Time,TemperatureF,DewpointF,PressureIn,WindDirection,WindDirectionDegrees,WindSpeedMPH,WindSpeedGustMPH,Humidity,HourlyPrecipIn,Conditions,Clouds,dailyrainin,SoftwareType,DateUTC
2013-04-14 00:01:00,41.0,34.0,30.58,West,270,0.0,0.0,76,-99.99,,,-99.99,,2013-04-14 07:01:00,
2013-04-14 00:11:00,41.0,34.0,30.58,West,270,0.0,0.0,76,-99.99,,,-99.99,,2013-04-14 07:11:00,
2013-04-14 00:21:00,40.0,34.0,30.59,West,270,0.0,0.0,78,-99.99,,,-99.99,,2013-04-14 07:21:00,
2013-04-14 00:32:00,40.0,34.0,30.59,West,270,0.0,0.0,79,-99.99,,,-99.99,,2013-04-14 07:32:00,
2013-04-14 00:42:00,40.0,34.0,30.59,West,270,0.0,0.0,79,-99.99,,,-99.99,,2013-04-14 07:42:00,
2013-04-14 00:52:00,40.0,34.0,30.60,West,270,0.0,0.0,79,-99.99,,,-99.99,,2013-04-14 07:52:00,
2013-04-14 01:02:00,40.0,34.0,30.60,West,270,0.0,0.0,80,-99.99,,,-99.99,,2013-04-14 08:02:00,
2013-04-14 01:11:00,40.0,34.0,30.60,West,270,0.0,0.0,80,-99.99,,,-99.99,,2013-04-14 08:11:00,
2013-04-14 01:21:00,40.0,34.0,30.60,West,270,0.0,0.0,79,-99.99,,,-99.99,,2013-04-14 08:21:00,
2013-04-14 01:32:00,40.0,34.0,30.60,West,270,0.0,0.0,79,-99.99,,,-99.99,,2013-04-14 08:32:00,
2013-04-14 01:42:00,40.0,34.0,30.60,West,270,0.0,0.0,79,-99.99,,,-99.99,,2013-04-14 08:42:00,
2013-04-14 01:51:00,40.0,34.0,30.59,West,270,0.0,0.0,79,-99.99,,,-99.99,,2013-04-14 08:51:00,
2013-04-14 02:02:00,39.0,33.0,30.58,West,270,0.0,0.0,80,-99.99,,,-99.99,,2013-04-14 09:02:00,
2013-04-14 02:11:00,39.0,33.0,30.58,West,270,0.0,0.0,80,-99.99,,,-99.99,,2013-04-14 09:11:00,
2013-04-14 02:22:00,39.0,33.0,30.58,West,270,0.0,0.0,79,-99.99,,,-99.99,,2013-04-14 09:22:00,
2013-04-14 02:32:00,39.0,33.0,30.58,West,270,0.0,0.0,80,-99.99,,,-99.99,,2013-04-14 09:32:00,
2013-04-14 02:42:00,39.0,33.0,30.58,West,270,0.0,0.0,80,-99.99,,,-99.99,,2013-04-14 09:42:00,
2013-04-14 02:53:00,39.0,33.0,30.59,West,270,0.0,0.0,79,-99.99,,,-99.99,,2013-04-14 09:53:00,
2013-04-14 03:02:00,39.0,33.0,30.59,West,270,0.0,0.0,80,-99.99,,,-99.99,,2013-04-14 10:02:00,
2013-04-14 03:12:00,39.0,33.0,30.59,West,270,0.0,0.0,80,-99.99,,,-99.99,,2013-04-14 10:12:00,
2013-04-14 03:22:00,39.0,33.0,30.58,West,270,0.0,0.0,80,-99.99,,,-99.99,,2013-04-14 10:22:00,
2013-04-14 03:32:00,39.0,34.0,30.58,West,270,0.0,0.0,81,-99.99,,,-99.99,,2013-04-14 10:32:00,
2013-04-14 03:42:00,39.0,34.0,30.58,West,270,0.0,0.0,81,-99.99,,,-99.99,,2013-04-14 10:42:00,
2013-04-14 03:52:00,39.0,33.0,30.58,West,270,0.0,0.0,80,-99.99,,,-99.99,,2013-04-14 10:52:00,
2013-04-14 04:02:00,40.0,34.0,30.58,West,270,0.0,0.0,80,-99.99,,,-99.99,,2013-04-14 11:02:00,
2013-04-14 04:12:00,40.0,34.0,30.58,West,270,0.0,0.0,80,-99.99,,,-99.99,,2013-04-14 11:12:00,
2013-04-14 04:22:00,40.0,34.0,30.59,West,270,0.0,0.0,80,-99.99,,,-99.99,,2013-04-14 11:22:00,
2013-04-14 04:32:00,40.0,35.0,30.58,West,270,0.0,0.0,81,-99.99,,,-99.99,,2013-04-14 11:32:00,
2013-04-14 04:42:00,40.0,35.0,30.58,West,270,0.0,0.0,81,-99.99,,,-99.99,,2013-04-14 11:42:00,
2013-04-14 04:52:00,40.0,35.0,30.58,West,270,0.0,0.0,81,-99.99,,,-99.99,,2013-04-14 11:52:00,
2013-04-14 05:02:00,41.0,36.0,30.59,West,270,0.0,0.0,81,-99.99,,,-99.99,,2013-04-14 12:02:00,
2013-04-14 05:11:00,41.0,36.0,30.59,West,270,0.0,0.0,81,-99.99,,,-99.99,,2013-04-14 12:11:00,
2013-04-14 05:21:00,41.0,35.0,30.58,West,270,0.0,0.0,80,-99.99,,,-99.99,,2013-04-14 12:21:00,
2013-04-14 05:32:00,41.0,35.0,30.58,West,270,0.0,0.0,80,-99.99,,,-99.99,,2013-04-14 12:32:00,
2013-04-14 05:42:00,41.0,35.0,30.58,West,270,0.0,0.0,80,-99.99,,,-99.99,,2013-04-14 12:42:00,
2013-04-14 05:51:00,41.0,35.0,30.59,West,270,0.0,0.0,80,-99.99,,,-99.99,,2013-04-14 12:51:00,
2013-04-14 06:02:00,41.0,35.0,30.59,West,270,0.0,0.0,80,-99.99,,,-99.99,,2013-04-14 13:02:00,
2013-04-14 06:11:00,41.0,35.0,30.59,West,270,0.0,0.0,80,-99.99,,,-99.99,,2013-04-14 13:11:00,
2013-04-14 06:22:00,41.0,35.0,30.58,West,270,0.0,0.0,80,-99.99,,,-99.99,,2013-04-14 13:22:00,
2013-04-14 06:32:00,41.0,35.0,30.59,West,270,0.0,0.0,79,-99.99,,,-99.99,,2013-04-14 13:32:00,
2013-04-14 06:42:00,41.0,35.0,30.59,West,270,0.0,0.0,79,-99.99,,,-99.99,,2013-04-14 13:42:00,
2013-04-14 06:52:00,41.0,35.0,30.59,West,270,0.0,0.0,80,-99.99,,,-99.99,,2013-04-14 13:52:00,
2013-04-14 07:02:00,41.0,35.0,30.59,West,270,0.0,0.0,79,-99.99,,,-99.99,,2013-04-14 14:02:00,
2013-04-14 07:11:00,41.0,35.0,30.59,West,270,0.0,0.0,79,-99.99,,,-99.99,,2013-04-14 14:11:00,
2013-04-14 07:21:00,41.0,35.0,30.59,West,270,0.0,0.0,79,-99.99,,,-99.99,,2013-04-14 14:21:00,
2013-04-14 07:32:00,41.0,35.0,30.59,West,270,0.0,0.0,79,-99.99,,,-99.99,,2013-04-14 14:32:00,
2013-04-14 07:41:00,41.0,35.0,30.59,West,270,0.0,0.0,79,-99.99,,,-99.99,,2013-04-14 14:41:00,
2013-04-14 07:52:00,41.0,35.0,30.59,West,270,0.0,0.0,79,-99.99,,,-99.99,,2013-04-14 14:52:00,
2013-04-14 08:02:00,42.0,36.0,30.59,West,270,0.0,0.0,78,-99.99,,,-99.99,,2013-04-14 15:02:00,
2013-04-14 08:12:00,42.0,36.0,30.59,West,270,0.0,0.0,78,-99.99,,,-99.99,,2013-04-14 15:12:00,
2013-04-14 08:22:00,42.0,35.0,30.59,West,270,0.0,0.0,77,-99.99,,,-99.99,,2013-04-14 15:22:00,
2013-04-14 08:33:00,42.0,35.0,30.58,West,270,0.0,0.0,77,-99.99,,,-99.99,,2013-04-14 15:33:00,
2013-04-14 08:42:00,42.0,35.0,30.58,West,270,0.0,0.0,77,-99.99,,,-99.99,,2013-04-14 15:42:00,
2013-04-14 08:52:00,42.0,35.0,30.58,West,270,0.0,0.0,77,-99.99,,,-99.99,,2013-04-14 15:52:00,
2013-04-14 09:03:00,44.0,37.0,30.58,West,270,0.0,0.0,76,-99.99,,,-99.99,,2013-04-14 16:03:00,
2013-04-14 09:12:00,44.0,37.0,30.58,West,270,0.0,0.0,76,-99.99,,,-99.99,,2013-04-14 16:12:00,
2013-04-14 09:22:00,44.0,37.0,30.58,West,270,0.0,0.0,75,-99.99,,,-99.99,,2013-04-14 16:22:00,
2013-04-14 09:32:00,44.0,37.0,30.58,West,270,0.0,0.0,75,-99.99,,,-99.99,,2013-04-14 16:32:00,
2013-04-14 09:42:00,44.0,37.0,30.58,West,270,0.0,0.0,75,-99.99,,,-99.99,,2013-04-14 16:42:00,
2013-04-14 09:52:00,46.0,38.0,30.59,West,270,0.0,0.0,74,-99.99,,,-99.99,,2013-04-14 16:52:00,
2013-04-14 10:02:00,47.0,38.0,30.60,West,270,0.0,0.0,71,-99.99,,,-99.99,,2013-04-14 17:02:00,
2013-04-14 10:12:00,47.0,38.0,30.60,West,270,0.0,0.0,71,-99.99,,,-99.99,,2013-04-14 17:12:00,
2013-04-14 10:22:00,47.0,38.0,30.59,West,270,0.0,0.0,70,-99.99,,,-99.99,,2013-04-14 17:22:00,
2013-04-14 10:32:00,48.0,38.0,30.59,West,270,0.0,0.0,68,-99.99,,,-99.99,,2013-04-14 17:32:00,
2013-04-14 10:41:00,48.0,38.0,30.59,West,270,0.0,0.0,68,-99.99,,,-99.99,,2013-04-14 17:41:00,
2013-04-14 10:52:00,48.0,38.0,30.59,West,270,0.0,0.0,68,-99.99,,,-99.99,,2013-04-14 17:52:00,
2013-04-14 11:02:00,51.0,39.0,30.60,West,270,0.0,0.0,63,-99.99,,,-99.99,,2013-04-14 18:02:00,
2013-04-14 11:32:00,53.0,39.0,30.59,West,270,0.0,0.0,58,-99.99,,,-99.99,,2013-04-14 18:32:00,
2013-04-14 11:52:00,53.0,39.0,30.59,West,270,0.0,0.0,58,-99.99,,,-99.99,,2013-04-14 18:52:00,
2013-04-14 12:02:00,56.0,40.0,30.59,West,270,0.0,0.0,54,-99.99,,,-99.99,,2013-04-14 19:02:00,
2013-04-14 12:22:00,58.0,40.0,30.59,West,270,0.0,0.0,52,-99.99,,,-99.99,,2013-04-14 19:22:00,
2013-04-14 12:32:00,60.0,40.0,30.58,West,270,0.0,0.0,47,-99.99,,,-99.99,,2013-04-14 19:32:00,
2013-04-14 12:52:00,60.0,40.0,30.58,West,270,0.0,0.0,47,-99.99,,,-99.99,,2013-04-14 19:52:00,
2013-04-14 13:02:00,61.0,40.0,30.58,West,270,0.0,0.0,45,-99.99,,,-99.99,,2013-04-14 20:02:00,
2013-04-14 13:32:00,63.0,40.0,30.57,West,270,0.0,0.0,42,-99.99,,,-99.99,,2013-04-14 20:32:00,
2013-04-14 13:52:00,63.0,39.0,30.57,West,270,0.0,0.0,41,-99.99,,,-99.99,,2013-04-14 20:52:00,
2013-04-14 14:02:00,60.0,37.0,30.57,West,270,0.0,0.0,42,-99.99,,,-99.99,,2013-04-14 21:02:00,
2013-04-14 14:22:00,61.0,38.0,30.57,West,270,0.0,0.0,42,-99.99,,,-99.99,,2013-04-14 21:22:00,
2013-04-14 14:32:00,61.0,36.0,30.56,West,270,0.0,0.0,39,-99.99,,,-99.99,,2013-04-14 21:32:00,
2013-04-14 14:52:00,60.0,36.0,30.57,West,270,0.0,0.0,40,-99.99,,,-99.99,,2013-04-14 21:52:00,
2013-04-14 15:02:00,61.0,36.0,30.56,West,270,0.0,0.0,40,-99.99,,,-99.99,,2013-04-14 22:02:00,
2013-04-14 15:32:00,55.0,33.0,30.55,West,270,0.0,0.0,44,-99.99,,,-99.99,,2013-04-14 22:32:00,
2013-04-14 15:42:00,55.0,33.0,30.55,West,270,0.0,0.0,44,-99.99,,,-99.99,,2013-04-14 22:42:00,
2013-04-14 15:52:00,55.0,32.0,30.55,West,270,0.0,0.0,42,-99.99,,,-99.99,,2013-04-14 22:52:00,
2013-04-14 16:02:00,56.0,33.0,30.55,West,270,0.0,0.0,41,-99.99,,,-99.99,,2013-04-14 23:02:00,
2013-04-14 16:12:00,56.0,33.0,30.55,West,270,0.0,0.0,41,-99.99,,,-99.99,,2013-04-14 23:12:00,
2013-04-14 16:22:00,57.0,32.0,30.55,West,270,0.0,0.0,39,-99.99,,,-99.99,,2013-04-14 23:22:00,
2013-04-14 16:32:00,57.0,33.0,30.54,West,270,0.0,0.0,40,-99.99,,,-99.99,,2013-04-14 23:32:00,
2013-04-14 16:52:00,58.0,34.0,30.54,West,270,0.0,0.0,40,-99.99,,,-99.99,,2013-04-14 23:52:00,
2013-04-14 17:01:00,58.0,34.0,30.53,West,270,0.0,0.0,40,-99.99,,,-99.99,,2013-04-15 00:01:00,
2013-04-14 17:22:00,58.0,33.0,30.54,West,270,0.0,0.0,39,-99.99,,,-99.99,,2013-04-15 00:22:00,
2013-04-14 17:32:00,58.0,32.0,30.53,West,270,0.0,0.0,37,-99.99,,,-99.99,,2013-04-15 00:32:00,
2013-04-14 17:42:00,58.0,32.0,30.53,West,270,0.0,0.0,37,-99.99,,,-99.99,,2013-04-15 00:42:00,
2013-04-14 18:02:00,58.0,31.0,30.53,West,270,0.0,0.0,35,-99.99,,,-99.99,,2013-04-15 01:02:00,
2013-04-14 18:22:00,58.0,31.0,30.53,West,270,0.0,0.0,35,-99.99,,,-99.99,,2013-04-15 01:22:00,
2013-04-14 18:32:00,57.0,30.0,30.53,West,270,0.0,0.0,36,-99.99,,,-99.99,,2013-04-15 01:32:00,
2013-04-14 18:52:00,57.0,31.0,30.53,West,270,0.0,0.0,37,-99.99,,,-99.99,,2013-04-15 01:52:00,
2013-04-14 19:02:00,56.0,30.0,30.54,West,270,0.0,0.0,37,-99.99,,,-99.99,,2013-04-15 02:02:00,
2013-04-14 19:21:00,56.0,31.0,30.53,West,270,0.0,0.0,38,-99.99,,,-99.99,,2013-04-15 02:21:00,
2013-04-14 19:32:00,56.0,31.0,30.53,West,270,0.0,0.0,38,-99.99,,,-99.99,,2013-04-15 02:32:00,
2013-04-14 19:52:00,55.0,30.0,30.54,West,270,0.0,0.0,38,-99.99,,,-99.99,,2013-04-15 02:52:00,
2013-04-14 20:02:00,51.0,28.0,30.54,West,270,0.0,0.0,41,-99.99,,,-99.99,,2013-04-15 03:02:00,
2013-04-14 20:11:00,51.0,28.0,30.54,West,270,0.0,0.0,41,-99.99,,,-99.99,,2013-04-15 03:11:00,
2013-04-14 20:21:00,50.0,31.0,30.53,West,270,0.0,0.0,47,-99.99,,,-99.99,,2013-04-15 03:21:00,
2013-04-14 20:32:00,48.0,31.0,30.54,West,270,0.0,0.0,52,-99.99,,,-99.99,,2013-04-15 03:32:00,
2013-04-14 20:42:00,48.0,31.0,30.54,West,270,0.0,0.0,52,-99.99,,,-99.99,,2013-04-15 03:42:00,
2013-04-14 20:53:00,47.0,31.0,30.54,West,270,0.0,0.0,54,-99.99,,,-99.99,,2013-04-15 03:53:00,
2013-04-14 21:02:00,46.0,32.0,30.54,West,270,0.0,0.0,58,-99.99,,,-99.99,,2013-04-15 04:02:00,
2013-04-14 21:12:00,46.0,32.0,30.54,West,270,0.0,0.0,58,-99.99,,,-99.99,,2013-04-15 04:12:00,
2013-04-14 21:22:00,45.0,32.0,30.55,West,270,0.0,0.0,59,-99.99,,,-99.99,,2013-04-15 04:22:00,
2013-04-14 21:33:00,44.0,31.0,30.55,West,270,0.0,0.0,61,-99.99,,,-99.99,,2013-04-15 04:33:00,
2013-04-14 21:42:00,44.0,31.0,30.55,West,270,0.0,0.0,61,-99.99,,,-99.99,,2013-04-15 04:42:00,
2013-04-14 21:52:00,44.0,32.0,30.55,West,270,0.0,0.0,62,-99.99,,,-99.99,,2013-04-15 04:52:00,
2013-04-14 22:02:00,44.0,33.0,30.54,West,270,0.0,0.0,64,-99.99,,,-99.99,,2013-04-15 05:02:00,
2013-04-14 22:12:00,44.0,33.0,30.54,West,270,0.0,0.0,64,-99.99,,,-99.99,,2013-04-15 05:12:00,
2013-04-14 22:22:00,44.0,33.0,30.55,West,270,0.0,0.0,64,-99.99,,,-99.99,,2013-04-15 05:22:00,
2013-04-14 22:32:00,44.0,33.0,30.55,West,270,0.0,0.0,64,-99.99,,,-99.99,,2013-04-15 05:32:00,
2013-04-14 22:42:00,44.0,33.0,30.55,West,270,0.0,0.0,64,-99.99,,,-99.99,,2013-04-15 05:42:00,
2013-04-14 22:52:00,43.0,32.0,30.54,West,270,0.0,0.0,64,-99.99,,,-99.99,,2013-04-15 05:52:00,
2013-04-14 23:01:00,43.0,32.0,30.54,West,270,0.0,0.0,64,-99.99,,,-99.99,,2013-04-15 06:01:00,
2013-04-14 23:12:00,43.0,32.0,30.54,West,270,0.0,0.0,64,-99.99,,,-99.99,,2013-04-15 06:12:00,
2013-04-14 23:22:00,43.0,32.0,30.54,West,270,0.0,0.0,65,-99.99,,,-99.99,,2013-04-15 06:22:00,
2013-04-14 23:32:00,43.0,32.0,30.54,West,270,0.0,0.0,66,-99.99,,,-99.99,,2013-04-15 06:32:00,
2013-04-14 23:42:00,43.0,32.0,30.54,West,270,0.0,0.0,66,-99.99,,,-99.99,,2013-04-15 06:42:00,
2013-04-14 23:52:00,43.0,33.0,30.54,West,270,0.0,0.0,68,-99.99,,,-99.99,,2013-04-15 06:52:00,